Regional Weather Roundup
Issued by NWS

Home | Current Version | Previous Version | Graphics & Text | Print | Product List | Glossary On
Versions: 1 2 3 4 5 6 7 8 9 10 11 12 13 14 15 16 17 18 19 20 21 22 23 24 25 26 27 28
000
ASUS45 KBOU 252107
RWRCO

WEATHER ROUNDUP FOR COLORADO
NATIONAL WEATHER SERVICE DENVER/BOULDER CO
200 PM MST SAT FEB 25 2017

NOTE: "FAIR" INDICATES FEW OR NO CLOUDS BELOW 12000 FEET WITH NO
SIGNIFICANT WEATHER AND/OR OBSTRUCTIONS TO VISIBILITY.

COZ001>005-013-030-031-252200-
...NORTHWEST COLORADO...

CITY           SKY/WX    TMP DP  RH WIND       PRES   REMARKS
CRAIG          CLOUDY    24   7  48 W21       29.93F WCI   9
HAYDEN         PTSUNNY   21   1  42 W23G30    29.90F WCI   5
MEEKER         FLURRIES  24  11  57 W15       29.93F WCI  11
MOUNT WERNER   NOT AVBL
STEAMBOAT SPGS CLOUDY    19   4  51 W18G24    29.89F WCI   4
WALDEN         NOT AVBL
$$

COZ006>008-011-252200-
...WEST CENTRAL VALLEYS...

CITY           SKY/WX    TMP DP  RH WIND       PRES   REMARKS
GRAND JUNCTION PTSUNNY   34  13  41 N8        29.98F WCI  27
MONTROSE       CLOUDY    33   5  30 VRB3      29.97
EAGLE          PTSUNNY   25   9  50 SW24G31   29.94F WCI   9
RIFLE          FAIR      31  12  45 W18       29.96F WCI  19
DELTA          FAIR      37   3  23 CALM      29.97F
NUCLA          PTSUNNY   37   0  20 SW12G20   29.98F
$$

COZ017>023-064>068-252200-
...SOUTHWEST COLORADO...

CITY           SKY/WX    TMP DP  RH WIND       PRES   REMARKS
DURANGO        FAIR      35   6  29 W21G26    29.94F WCI  24
CORTEZ         CLOUDY    35   4  27 NW13G20   29.97F WCI  26
PAGOSA SPRINGS CLOUDY    31   1  28 SW14G22   29.91F WCI  21
TELLURIDE      PTSUNNY   21   3  44 W9        29.91F WCI  11
WOLF CREEK PAS CLOUDY     7   5  92 S24G33    29.82F FOG     WCI -15
$$

COZ009-010-012-014-032>034-037-058>063-252200-
...CENTRAL COLORADO...

CITY           SKY/WX    TMP DP  RH WIND       PRES   REMARKS
ASPEN          CLOUDY    19   6  57 NW12G18   29.87F WCI   7
BUENA VISTA    FAIR      24  -3  30 W17G29    29.84F WCI  10
COPPER MTN     NOT AVBL
BERTHOUD PASS  HAZE      -4 -15  59 MISG      29.60F VSB 3/4
COTTONWOOD PAS CLOUDY    18  -2  41 W9G23     29.77F WCI   6
GUNNISON       FAIR      16   5  62 E7        29.92F WCI   6
KREMMLING      CLOUDY    28   7  40 W14       29.86F WCI  17
LEADVILLE      LGT SNOW   9  -1  64 NW13      29.77F WCI  -7
MONARCH PASS     N/A      1  -4  78 SW35G52   29.82F WCI -25
SALIDA         FAIR      29  -8  19 W20G36    29.93R WCI  17
SUNLIGHT       NOT AVBL
WILKERSON PASS CLOUDY    10  -9  40 W9G26     29.73S WCI  -2
$$

COZ069>075-252200-
...SAN LUIS VALLEY/SANGRE DE CRISTO MOUNTAINS...

CITY           SKY/WX    TMP DP  RH WIND       PRES   REMARKS
ALAMOSA        FAIR      34   4  28 W17G25    29.83F WCI  23
LA VETA PASS   FAIR      23   1  39 SW21G43   29.76S WCI   8
SAGUACHE       FAIR      30   0  27 NW29G39   29.85F WCI  15
$$

COZ035-036-038>040-252200-
...NORTHERN COLORADO FRONT RANGE...

CITY           SKY/WX    TMP DP  RH WIND       PRES   REMARKS
DENVER INTL AP PTSUNNY   35  -2  20 S8G20     29.80F WCI  29
DMNS CITY PARK   N/A     38  -2  18 NW13      29.79F
AURORA         PTSUNNY   36  -2  19 W9        29.80F
FRONT RANGE AP NOT AVBL
ERIE MUNI ARPT FAIR      37   5  26 NW9       29.82S
BOULDER MUN AP FAIR      34   9  35 N3        29.81F
CENTENNIAL     FAIR      34   1  24 CALM      29.79F
BROOMFIELD     PTSUNNY   36   1  23 W17G31    29.81F
FORT COLLINS   FAIR      34  19  54 E9        29.82F WCI  27
LONGMONT       FAIR      40   8  27 N12       29.83F
$$

COZ041-046-047-076>085-087-088-252200-
...PIKES PEAK/PALMER DIVIDE AND SOUTHERN FOOTHILLS...

CITY           SKY/WX    TMP DP  RH WIND       PRES   REMARKS
COLO. SPRINGS  PTSUNNY   38 -10  12 S6        29.78F
A. F. ACADEMY  FAIR      36  -7  16 W14G26    29.76F
SCHRIEVER AFB  FAIR      36  -8  15 NW7       29.78F
ELLICOTT       NOT AVBL
FALCON         FAIR      33 -10  15 SW7G18    29.78F WCI  27
FORT CARSON    FAIR      41  -8  12 W17G30    29.77F
LIMON          FAIR      36  -2  20 S8        29.82F
MONUMENT HILL  PTSUNNY   30   1  29 N7        29.78S WCI  23
TRINIDAD       FAIR      47  -3  12 W23G39    29.79F
$$

COZ042>045-048>051-090-091-252200-
...NORTHEAST COLORADO...

CITY           SKY/WX    TMP DP  RH WIND       PRES   REMARKS
GREELEY ARPT   FAIR      33  16  49 S3        29.85
AKRON          FAIR      32  17  54 SW5       29.86F WCI  27
BURLINGTON     FAIR      40   5  23 VRB6      29.89F
WRAY           NOT AVBL
STERLING       FAIR      32  19  59 W7        29.87F WCI  26
HOLYOKE        FAIR      37  18  44 NW10G17   29.89F
FORT MORGAN    FAIR      32  18  56 CALM      29.87F
$$

COZ086-089-092>099-252200-
...SOUTHEAST COLORADO...

CITY           SKY/WX    TMP DP  RH WIND       PRES   REMARKS
PUEBLO         FAIR      45  -2  14 SW12      29.82F
LA JUNTA       FAIR      45   0  15 W7        29.85F
LAMAR          FAIR      45   3  17 W6        29.87F
SPRINGFIELD      N/A     47  -3  12 SW13G21   29.85F
$$




USA.gov is the U.S. government's official web portal to all federal, state and local government web resources and services.